Time,TemperatureF,DewpointF,PressureIn,WindDirection,WindDirectionDegrees,WindSpeedMPH,WindSpeedGustMPH,Humidity,HourlyPrecipIn,Conditions,Clouds,dailyrainin,SoftwareType,DateUTC
2013-02-16 00:03:00,40.7,12.4,30.19,ESE,113,0.0,0.4,31,0.00,,,0.00,WUHU216HW,2013-02-16 07:03:00,
2013-02-16 00:08:00,40.0,11.7,30.19,East,90,0.0,0.2,31,0.00,,,0.00,WUHU216HW,2013-02-16 07:08:00,
2013-02-16 00:13:00,39.8,12.3,30.19,East,90,0.0,0.0,32,0.00,,,0.00,WUHU216HW,2013-02-16 07:13:00,
2013-02-16 00:18:00,39.4,11.9,30.19,SE,135,0.4,0.4,32,0.00,,,0.00,WUHU216HW,2013-02-16 07:18:00,
2013-02-16 00:23:00,39.2,12.4,30.19,ESE,113,0.0,1.1,33,0.00,,,0.00,WUHU216HW,2013-02-16 07:23:00,
2013-02-16 00:28:00,39.6,12.7,30.19,East,90,0.0,1.1,33,0.00,,,0.00,WUHU216HW,2013-02-16 07:28:00,
2013-02-16 00:33:00,39.8,12.9,30.19,ENE,68,0.0,0.9,33,0.00,,,0.00,WUHU216HW,2013-02-16 07:33:00,
2013-02-16 00:38:00,40.1,13.2,30.19,NE,45,0.0,0.4,33,0.00,,,0.00,WUHU216HW,2013-02-16 07:38:00,
2013-02-16 00:43:00,40.1,12.5,30.20,ESE,113,0.0,1.1,32,0.00,,,0.00,WUHU216HW,2013-02-16 07:43:00,
2013-02-16 00:48:00,39.8,12.3,30.20,ESE,113,0.0,1.1,32,0.00,,,0.00,WUHU216HW,2013-02-16 07:48:00,
2013-02-16 00:53:00,39.6,12.1,30.20,ESE,113,0.0,0.0,32,0.00,,,0.00,WUHU216HW,2013-02-16 07:53:00,
2013-02-16 00:58:00,39.2,11.7,30.20,ESE,113,0.0,0.0,32,0.00,,,0.00,WUHU216HW,2013-02-16 07:58:00,
2013-02-16 01:03:00,39.2,12.4,30.20,ESE,113,0.4,0.4,33,0.00,,,0.00,WUHU216HW,2013-02-16 08:03:00,
2013-02-16 01:08:00,39.1,12.3,30.20,ESE,113,0.0,0.4,33,0.00,,,0.00,WUHU216HW,2013-02-16 08:08:00,
2013-02-16 01:13:00,39.1,12.3,30.20,East,90,0.0,0.4,33,0.00,,,0.00,WUHU216HW,2013-02-16 08:13:00,
2013-02-16 01:18:00,39.6,12.7,30.20,NNE,23,0.4,0.9,33,0.00,,,0.00,WUHU216HW,2013-02-16 08:18:00,
2013-02-16 01:23:00,40.5,12.9,30.20,NE,45,0.2,1.6,32,0.00,,,0.00,WUHU216HW,2013-02-16 08:23:00,
2013-02-16 01:28:00,40.7,13.1,30.20,NNE,23,0.0,1.6,32,0.00,,,0.00,WUHU216HW,2013-02-16 08:28:00,
2013-02-16 01:33:00,40.7,12.4,30.19,NNE,23,0.0,0.7,31,0.00,,,0.00,WUHU216HW,2013-02-16 08:33:00,
2013-02-16 01:38:00,40.7,12.4,30.20,NNE,23,0.0,0.2,31,0.00,,,0.00,WUHU216HW,2013-02-16 08:38:00,
2013-02-16 01:43:00,40.5,12.3,30.19,NNE,23,0.0,0.0,31,0.00,,,0.00,WUHU216HW,2013-02-16 08:43:00,
2013-02-16 01:48:00,40.3,12.1,30.20,NNE,23,0.4,0.4,31,0.00,,,0.00,WUHU216HW,2013-02-16 08:48:00,
2013-02-16 01:53:00,40.1,12.5,30.20,NNE,23,0.2,0.4,32,0.00,,,0.00,WUHU216HW,2013-02-16 08:53:00,
2013-02-16 01:58:00,40.0,12.4,30.19,NNE,23,0.4,0.4,32,0.00,,,0.00,WUHU216HW,2013-02-16 08:58:00,
2013-02-16 02:03:00,40.1,12.5,30.19,NE,45,0.4,1.1,32,0.00,,,0.00,WUHU216HW,2013-02-16 09:03:00,
2013-02-16 02:08:00,40.3,12.7,30.19,NE,45,0.0,1.1,32,0.00,,,0.00,WUHU216HW,2013-02-16 09:08:00,
2013-02-16 02:13:00,40.9,13.2,30.20,NE,45,1.1,2.7,32,0.00,,,0.00,WUHU216HW,2013-02-16 09:13:00,
2013-02-16 02:18:00,41.2,12.9,30.19,NNE,23,2.5,2.7,31,0.00,,,0.00,WUHU216HW,2013-02-16 09:18:00,
2013-02-16 02:23:00,41.4,13.0,30.20,NE,45,1.6,2.5,31,0.00,,,0.00,WUHU216HW,2013-02-16 09:23:00,
2013-02-16 02:28:00,41.6,13.1,30.19,NE,45,2.5,2.9,31,0.00,,,0.00,WUHU216HW,2013-02-16 09:28:00,
2013-02-16 02:33:00,41.8,13.3,30.19,NE,45,1.6,2.9,31,0.00,,,0.00,WUHU216HW,2013-02-16 09:33:00,
2013-02-16 02:38:00,41.8,13.3,30.19,NE,45,0.0,2.7,31,0.00,,,0.00,WUHU216HW,2013-02-16 09:38:00,
2013-02-16 02:43:00,41.6,13.1,30.19,NNE,23,0.0,2.7,31,0.00,,,0.00,WUHU216HW,2013-02-16 09:43:00,
2013-02-16 02:48:00,41.2,12.9,30.20,NNE,23,0.0,2.7,31,0.00,,,0.00,WUHU216HW,2013-02-16 09:48:00,
2013-02-16 02:53:00,40.7,12.4,30.20,NNE,23,0.0,0.2,31,0.00,,,0.00,WUHU216HW,2013-02-16 09:53:00,
2013-02-16 02:59:00,40.3,12.7,30.20,ESE,113,0.0,0.4,32,0.00,,,0.00,WUHU216HW,2013-02-16 09:59:00,
2013-02-16 03:04:00,40.5,12.9,30.20,NE,45,0.0,2.0,32,0.00,,,0.00,WUHU216HW,2013-02-16 10:04:00,
2013-02-16 03:09:00,40.7,13.1,30.20,East,90,0.7,2.0,32,0.00,,,0.00,WUHU216HW,2013-02-16 10:09:00,
2013-02-16 03:14:00,40.7,13.7,30.19,East,90,0.0,1.1,33,0.00,,,0.00,WUHU216HW,2013-02-16 10:14:00,
2013-02-16 03:19:00,40.7,13.7,30.19,North,0,0.0,0.4,33,0.00,,,0.00,WUHU216HW,2013-02-16 10:19:00,
2013-02-16 03:24:00,40.5,13.5,30.19,North,0,0.0,0.4,33,0.00,,,0.00,WUHU216HW,2013-02-16 10:24:00,
2013-02-16 03:29:00,40.5,13.5,30.19,NNE,23,0.2,0.4,33,0.00,,,0.00,WUHU216HW,2013-02-16 10:29:00,
2013-02-16 03:34:00,40.7,13.7,30.20,North,0,0.0,1.8,33,0.00,,,0.00,WUHU216HW,2013-02-16 10:34:00,
2013-02-16 03:39:00,40.7,13.7,30.20,NNW,338,0.2,1.8,33,0.00,,,0.00,WUHU216HW,2013-02-16 10:39:00,
2013-02-16 03:44:00,40.5,13.5,30.19,NNE,23,0.0,0.2,33,0.00,,,0.00,WUHU216HW,2013-02-16 10:44:00,
2013-02-16 03:49:00,40.3,13.3,30.19,North,0,0.0,0.4,33,0.00,,,0.00,WUHU216HW,2013-02-16 10:49:00,
2013-02-16 03:54:00,40.3,14.1,30.19,NNE,23,0.4,0.9,34,0.00,,,0.00,WUHU216HW,2013-02-16 10:54:00,
2013-02-16 03:59:00,40.7,14.9,30.19,North,0,0.4,1.8,35,0.00,,,0.00,WUHU216HW,2013-02-16 10:59:00,
2013-02-16 04:04:00,41.0,14.7,30.19,NE,45,1.8,1.8,34,0.00,,,0.00,WUHU216HW,2013-02-16 11:04:00,
2013-02-16 04:09:00,41.4,14.3,30.19,ENE,68,0.4,2.9,33,0.00,,,0.00,WUHU216HW,2013-02-16 11:09:00,
2013-02-16 04:14:00,41.4,14.3,30.19,North,0,0.4,2.9,33,0.00,,,0.00,WUHU216HW,2013-02-16 11:14:00,
2013-02-16 04:19:00,41.4,14.3,30.19,North,0,0.0,1.8,33,0.00,,,0.00,WUHU216HW,2013-02-16 11:19:00,
2013-02-16 04:24:00,41.2,14.1,30.19,NNE,23,0.0,1.8,33,0.00,,,0.00,WUHU216HW,2013-02-16 11:24:00,
2013-02-16 04:29:00,41.0,14.1,30.19,North,0,0.0,0.9,33,0.00,,,0.00,WUHU216HW,2013-02-16 11:29:00,
2013-02-16 04:34:00,41.0,14.1,30.19,North,0,0.2,1.8,33,0.00,,,0.00,WUHU216HW,2013-02-16 11:34:00,
2013-02-16 04:39:00,41.2,14.1,30.19,North,0,0.2,2.2,33,0.00,,,0.00,WUHU216HW,2013-02-16 11:39:00,
2013-02-16 04:44:00,41.2,14.1,30.19,NE,45,0.0,2.2,33,0.00,,,0.00,WUHU216HW,2013-02-16 11:44:00,
2013-02-16 04:49:00,41.0,14.1,30.19,NNE,23,1.3,1.8,33,0.00,,,0.00,WUHU216HW,2013-02-16 11:49:00,
2013-02-16 04:54:00,41.0,14.1,30.19,NE,45,0.4,1.8,33,0.00,,,0.00,WUHU216HW,2013-02-16 11:54:00,
2013-02-16 04:59:00,41.2,14.1,30.19,North,0,0.0,2.7,33,0.00,,,0.00,WUHU216HW,2013-02-16 11:59:00,
2013-02-16 05:04:00,41.2,14.1,30.19,NE,45,0.9,3.4,33,0.00,,,0.00,WUHU216HW,2013-02-16 12:04:00,
2013-02-16 05:09:00,41.4,14.3,30.19,NE,45,0.4,3.4,33,0.00,,,0.00,WUHU216HW,2013-02-16 12:09:00,
2013-02-16 05:14:00,41.2,14.1,30.19,NNW,338,0.0,2.9,33,0.00,,,0.00,WUHU216HW,2013-02-16 12:14:00,
2013-02-16 05:19:00,41.0,14.1,30.19,NNE,23,0.4,1.1,33,0.00,,,0.00,WUHU216HW,2013-02-16 12:19:00,
2013-02-16 05:24:00,40.9,13.9,30.18,NNE,23,0.2,1.1,33,0.00,,,0.00,WUHU216HW,2013-02-16 12:24:00,
2013-02-16 05:29:00,41.0,14.1,30.19,ENE,68,0.9,2.9,33,0.00,,,0.00,WUHU216HW,2013-02-16 12:29:00,
2013-02-16 05:34:00,41.4,14.3,30.19,NNE,23,0.9,3.1,33,0.00,,,0.00,WUHU216HW,2013-02-16 12:34:00,
2013-02-16 05:39:00,41.6,13.8,30.19,NE,45,0.7,4.0,32,0.00,,,0.00,WUHU216HW,2013-02-16 12:39:00,
2013-02-16 05:44:00,41.8,14.0,30.18,NE,45,0.7,4.0,32,0.00,,,0.00,WUHU216HW,2013-02-16 12:44:00,
2013-02-16 05:49:00,41.9,14.1,30.18,NE,45,2.2,4.0,32,0.00,,,0.00,WUHU216HW,2013-02-16 12:49:00,
2013-02-16 05:54:00,42.1,14.2,30.18,NNE,23,1.1,4.0,32,0.00,,,0.00,WUHU216HW,2013-02-16 12:54:00,
2013-02-16 05:59:00,42.1,14.2,30.19,NNE,23,1.1,4.3,32,0.00,,,0.00,WUHU216HW,2013-02-16 12:59:00,
2013-02-16 06:04:00,42.1,14.2,30.19,NE,45,0.9,4.3,32,0.00,,,0.00,WUHU216HW,2013-02-16 13:04:00,
2013-02-16 06:09:00,41.9,14.1,30.19,North,0,0.7,2.2,32,0.00,,,0.00,WUHU216HW,2013-02-16 13:09:00,
2013-02-16 06:14:00,41.8,14.0,30.19,NNW,338,0.4,2.2,32,0.00,,,0.00,WUHU216HW,2013-02-16 13:14:00,
2013-02-16 06:19:00,41.8,14.0,30.18,North,0,0.4,1.6,32,0.00,,,0.00,WUHU216HW,2013-02-16 13:19:00,
2013-02-16 06:24:00,41.4,13.7,30.19,North,0,2.0,2.0,32,0.00,,,0.00,WUHU216HW,2013-02-16 13:24:00,
2013-02-16 06:29:00,41.4,13.7,30.19,NNE,23,0.4,2.5,32,0.00,,,0.00,WUHU216HW,2013-02-16 13:29:00,
2013-02-16 06:35:00,41.4,13.7,30.19,North,0,0.4,2.5,32,0.00,,,0.00,WUHU216HW,2013-02-16 13:35:00,
2013-02-16 06:40:00,41.2,13.5,30.19,NNE,23,0.0,0.9,32,0.00,,,0.00,WUHU216HW,2013-02-16 13:40:00,
2013-02-16 06:45:00,41.0,13.3,30.18,NE,45,0.9,0.9,32,0.00,,,0.00,WUHU216HW,2013-02-16 13:45:00,
2013-02-16 06:50:00,41.0,13.3,30.19,NNE,23,0.7,0.9,32,0.00,,,0.00,WUHU216HW,2013-02-16 13:50:00,
2013-02-16 06:55:00,41.0,14.1,30.19,North,0,0.2,1.8,33,0.00,,,0.00,WUHU216HW,2013-02-16 13:55:00,
2013-02-16 07:00:00,41.0,14.1,30.19,NNE,23,0.4,1.8,33,0.00,,,0.00,WUHU216HW,2013-02-16 14:00:00,
2013-02-16 07:05:00,41.0,14.1,30.19,NE,45,1.3,1.8,33,0.00,,,0.00,WUHU216HW,2013-02-16 14:05:00,
2013-02-16 07:10:00,40.7,13.7,30.19,NE,45,1.1,1.3,33,0.00,,,0.00,WUHU216HW,2013-02-16 14:10:00,
2013-02-16 07:15:00,40.7,13.7,30.20,North,0,0.0,1.3,33,0.00,,,0.00,WUHU216HW,2013-02-16 14:15:00,
2013-02-16 07:20:00,40.3,13.3,30.20,NW,315,0.0,1.1,33,0.00,,,0.00,WUHU216HW,2013-02-16 14:20:00,
2013-02-16 07:25:00,40.3,13.3,30.20,North,0,0.0,1.8,33,0.00,,,0.00,WUHU216HW,2013-02-16 14:25:00,
2013-02-16 07:30:00,40.5,14.1,30.20,ENE,68,0.4,2.9,34,0.00,,,0.00,WUHU216HW,2013-02-16 14:30:00,
2013-02-16 07:35:00,40.7,14.3,30.20,NE,45,0.2,2.9,34,0.00,,,0.00,WUHU216HW,2013-02-16 14:35:00,
2013-02-16 07:40:00,41.2,14.1,30.20,WSW,248,0.0,1.6,33,0.00,,,0.00,WUHU216HW,2013-02-16 14:40:00,
2013-02-16 07:45:00,41.6,14.5,30.20,NNE,23,0.4,1.8,33,0.00,,,0.00,WUHU216HW,2013-02-16 14:45:00,
2013-02-16 07:50:00,42.1,15.0,30.20,ESE,113,0.7,1.8,33,0.00,,,0.00,WUHU216HW,2013-02-16 14:50:00,
2013-02-16 07:55:00,42.3,15.0,30.20,West,270,0.4,1.6,33,0.00,,,0.00,WUHU216HW,2013-02-16 14:55:00,
2013-02-16 08:00:00,42.5,14.6,30.20,SE,135,0.4,1.6,32,0.00,,,0.00,WUHU216HW,2013-02-16 15:00:00,
2013-02-16 08:05:00,43.0,15.0,30.20,ENE,68,2.0,2.5,32,0.00,,,0.00,WUHU216HW,2013-02-16 15:05:00,
2013-02-16 08:10:00,43.6,16.1,30.20,SE,135,0.7,4.0,33,0.00,,,0.00,WUHU216HW,2013-02-16 15:10:00,
2013-02-16 08:15:00,43.9,15.9,30.21,ENE,68,0.0,4.0,32,0.00,,,0.00,WUHU216HW,2013-02-16 15:15:00,
2013-02-16 08:20:00,44.3,15.5,30.21,NE,45,0.7,3.6,31,0.00,,,0.00,WUHU216HW,2013-02-16 15:20:00,
2013-02-16 08:25:00,44.8,16.7,30.21,NE,45,1.8,3.8,32,0.00,,,0.00,WUHU216HW,2013-02-16 15:25:00,
2013-02-16 08:30:00,45.0,16.1,30.21,NNE,23,0.9,3.8,31,0.00,,,0.00,WUHU216HW,2013-02-16 15:30:00,
2013-02-16 08:35:00,45.4,16.5,30.21,ESE,113,1.1,2.9,31,0.00,,,0.00,WUHU216HW,2013-02-16 15:35:00,
2013-02-16 08:40:00,45.7,16.7,30.21,East,90,1.8,2.9,31,0.00,,,0.00,WUHU216HW,2013-02-16 15:40:00,
2013-02-16 08:45:00,45.9,16.3,30.21,SE,135,0.7,2.5,30,0.00,,,0.00,WUHU216HW,2013-02-16 15:45:00,
2013-02-16 08:50:00,46.3,16.6,30.21,NE,45,4.3,4.9,30,0.00,,,0.00,WUHU216HW,2013-02-16 15:50:00,
2013-02-16 08:55:00,46.4,16.7,30.21,NE,45,0.4,4.9,30,0.00,,,0.00,WUHU216HW,2013-02-16 15:55:00,
2013-02-16 09:00:00,46.6,16.9,30.21,NE,45,1.3,4.3,30,0.00,,,0.00,WUHU216HW,2013-02-16 16:00:00,
2013-02-16 09:05:00,47.0,17.2,30.22,NE,45,2.0,2.0,30,0.00,,,0.00,WUHU216HW,2013-02-16 16:05:00,
2013-02-16 09:10:00,47.2,17.4,30.22,NE,45,0.4,2.7,30,0.00,,,0.00,WUHU216HW,2013-02-16 16:10:00,
2013-02-16 09:15:00,47.5,16.7,30.22,SE,135,1.1,3.4,29,0.00,,,0.00,WUHU216HW,2013-02-16 16:15:00,
2013-02-16 09:20:00,47.7,16.0,30.22,ENE,68,1.8,6.0,28,0.00,,,0.00,WUHU216HW,2013-02-16 16:20:00,
2013-02-16 09:25:00,47.9,16.2,30.22,NE,45,4.0,6.0,28,0.00,,,0.00,WUHU216HW,2013-02-16 16:25:00,
2013-02-16 09:30:00,48.2,16.5,30.22,East,90,1.3,4.5,28,0.00,,,0.00,WUHU216HW,2013-02-16 16:30:00,
2013-02-16 09:35:00,48.4,16.7,30.22,ENE,68,2.7,4.0,28,0.00,,,0.00,WUHU216HW,2013-02-16 16:35:00,
2013-02-16 09:40:00,48.6,16.7,30.22,ENE,68,0.9,3.8,28,0.00,,,0.00,WUHU216HW,2013-02-16 16:40:00,
2013-02-16 09:45:00,48.6,16.7,30.22,SE,135,2.0,5.4,28,0.00,,,0.00,WUHU216HW,2013-02-16 16:45:00,
2013-02-16 09:50:00,49.0,17.1,30.22,ENE,68,1.8,5.4,28,0.00,,,0.00,WUHU216HW,2013-02-16 16:50:00,
2013-02-16 09:55:00,49.3,16.5,30.21,ESE,113,1.8,5.4,27,0.00,,,0.00,WUHU216HW,2013-02-16 16:55:00,
2013-02-16 10:00:00,49.7,16.7,30.22,NE,45,1.3,5.4,27,0.00,,,0.00,WUHU216HW,2013-02-16 17:00:00,
2013-02-16 10:05:00,50.0,17.0,30.21,ESE,113,1.8,4.0,27,0.00,,,0.00,WUHU216HW,2013-02-16 17:05:00,
2013-02-16 10:10:00,50.2,17.2,30.21,SE,135,2.0,3.6,27,0.00,,,0.00,WUHU216HW,2013-02-16 17:10:00,
2013-02-16 10:15:00,50.4,15.5,30.21,ESE,113,2.0,4.9,25,0.00,,,0.00,WUHU216HW,2013-02-16 17:15:00,
2013-02-16 10:20:00,50.6,15.7,30.21,East,90,3.1,4.9,25,0.00,,,0.00,WUHU216HW,2013-02-16 17:20:00,
2013-02-16 10:25:00,50.9,16.0,30.21,NE,45,2.5,4.3,25,0.00,,,0.00,WUHU216HW,2013-02-16 17:25:00,
2013-02-16 10:30:00,51.1,16.1,30.21,NE,45,2.5,4.7,25,0.00,,,0.00,WUHU216HW,2013-02-16 17:30:00,
2013-02-16 10:35:00,51.5,16.5,30.21,ESE,113,1.1,6.0,25,0.00,,,0.00,WUHU216HW,2013-02-16 17:35:00,
2013-02-16 10:40:00,51.8,15.9,30.21,ENE,68,3.4,6.3,24,0.00,,,0.00,WUHU216HW,2013-02-16 17:40:00,
2013-02-16 10:45:00,52.2,16.1,30.21,East,90,1.1,6.3,24,0.00,,,0.00,WUHU216HW,2013-02-16 17:45:00,
2013-02-16 10:50:00,52.6,17.4,30.20,East,90,1.8,3.8,25,0.00,,,0.00,WUHU216HW,2013-02-16 17:50:00,
2013-02-16 10:55:00,52.7,16.6,30.20,East,90,1.8,3.1,24,0.00,,,0.00,WUHU216HW,2013-02-16 17:55:00,
2013-02-16 11:00:00,53.1,15.9,30.20,NE,45,8.3,8.3,23,0.00,,,0.00,WUHU216HW,2013-02-16 18:00:00,
2013-02-16 11:05:00,53.5,16.2,30.20,SE,135,3.8,8.3,23,0.00,,,0.00,WUHU216HW,2013-02-16 18:05:00,
2013-02-16 11:10:00,53.6,16.4,30.20,North,0,0.7,8.3,23,0.00,,,0.00,WUHU216HW,2013-02-16 18:10:00,
2013-02-16 11:15:00,54.0,16.7,30.20,NE,45,1.6,6.9,23,0.00,,,0.00,WUHU216HW,2013-02-16 18:15:00,
2013-02-16 11:20:00,54.4,16.0,30.20,ENE,68,2.5,6.9,22,0.00,,,0.00,WUHU216HW,2013-02-16 18:20:00,
2013-02-16 11:25:00,54.7,16.4,30.20,ENE,68,2.5,5.4,22,0.00,,,0.00,WUHU216HW,2013-02-16 18:25:00,
2013-02-16 11:30:00,54.9,16.6,30.19,NE,45,3.4,5.4,22,0.00,,,0.00,WUHU216HW,2013-02-16 18:30:00,
2013-02-16 11:35:00,55.1,15.8,30.19,ENE,68,4.0,8.5,21,0.00,,,0.00,WUHU216HW,2013-02-16 18:35:00,
2013-02-16 11:40:00,55.1,15.8,30.18,ESE,113,2.0,8.5,21,0.00,,,0.00,WUHU216HW,2013-02-16 18:40:00,
2013-02-16 11:45:00,55.4,16.0,30.18,ENE,68,2.5,5.4,21,0.00,,,0.00,WUHU216HW,2013-02-16 18:45:00,
2013-02-16 11:50:00,55.6,16.2,30.18,ENE,68,2.2,5.1,21,0.00,,,0.00,WUHU216HW,2013-02-16 18:50:00,
2013-02-16 11:55:00,56.0,16.5,30.18,SE,135,1.1,4.0,21,0.00,,,0.00,WUHU216HW,2013-02-16 18:55:00,
2013-02-16 12:00:00,56.2,15.7,30.18,NE,45,3.8,6.3,20,0.00,,,0.00,WUHU216HW,2013-02-16 19:00:00,
2013-02-16 12:05:00,56.3,16.8,30.18,ENE,68,2.0,6.3,21,0.00,,,0.00,WUHU216HW,2013-02-16 19:05:00,
2013-02-16 12:10:00,56.7,17.1,30.17,NE,45,2.2,4.0,21,0.00,,,0.00,WUHU216HW,2013-02-16 19:10:00,
2013-02-16 12:15:00,56.9,16.3,30.17,NE,45,2.9,4.5,20,0.00,,,0.00,WUHU216HW,2013-02-16 19:15:00,
2013-02-16 12:20:00,57.2,16.6,30.17,East,90,2.5,5.1,20,0.00,,,0.00,WUHU216HW,2013-02-16 19:20:00,
2013-02-16 12:25:00,57.4,16.8,30.17,ENE,68,5.4,5.8,20,0.00,,,0.00,WUHU216HW,2013-02-16 19:25:00,
2013-02-16 12:30:00,57.8,13.9,30.16,NE,45,3.6,5.8,18,0.00,,,0.00,WUHU216HW,2013-02-16 19:30:00,
2013-02-16 12:35:00,58.0,17.1,30.16,SE,135,1.1,5.4,20,0.00,,,0.00,WUHU216HW,2013-02-16 19:35:00,
2013-02-16 12:40:00,58.1,17.3,30.16,ESE,113,3.1,5.4,20,0.00,,,0.00,WUHU216HW,2013-02-16 19:40:00,
2013-02-16 12:45:00,58.3,14.3,30.15,NE,45,2.5,5.6,18,0.00,,,0.00,WUHU216HW,2013-02-16 19:45:00,
2013-02-16 12:50:00,58.7,14.6,30.15,NE,45,2.5,7.6,18,0.00,,,0.00,WUHU216HW,2013-02-16 19:50:00,
2013-02-16 12:55:00,58.7,14.6,30.14,ENE,68,2.0,7.6,18,0.00,,,0.00,WUHU216HW,2013-02-16 19:55:00,
2013-02-16 13:00:00,58.7,13.1,30.14,NE,45,4.0,7.6,17,0.00,,,0.00,WUHU216HW,2013-02-16 20:00:00,
2013-02-16 13:05:00,58.9,13.2,30.14,ENE,68,2.0,6.7,17,0.00,,,0.00,WUHU216HW,2013-02-16 20:05:00,
2013-02-16 13:10:00,59.0,13.3,30.14,East,90,2.0,7.2,17,0.00,,,0.00,WUHU216HW,2013-02-16 20:10:00,
2013-02-16 13:15:00,59.6,15.4,30.13,SE,135,2.5,7.2,18,0.00,,,0.00,WUHU216HW,2013-02-16 20:15:00,
2013-02-16 13:20:00,59.6,13.9,30.13,SE,135,3.1,5.8,17,0.00,,,0.00,WUHU216HW,2013-02-16 20:20:00,
2013-02-16 13:25:00,59.9,14.1,30.13,NE,45,4.3,5.6,17,0.00,,,0.00,WUHU216HW,2013-02-16 20:25:00,
2013-02-16 13:30:00,59.8,14.0,30.12,ENE,68,3.4,6.9,17,0.00,,,0.00,WUHU216HW,2013-02-16 20:30:00,
2013-02-16 13:35:00,60.3,14.5,30.12,East,90,1.8,6.9,17,0.00,,,0.00,WUHU216HW,2013-02-16 20:35:00,
2013-02-16 13:40:00,60.7,14.8,30.12,ENE,68,2.0,4.0,17,0.00,,,0.00,WUHU216HW,2013-02-16 20:40:00,
2013-02-16 13:45:00,60.8,15.0,30.12,ENE,68,1.6,4.5,17,0.00,,,0.00,WUHU216HW,2013-02-16 20:45:00,
2013-02-16 13:50:00,60.8,15.0,30.11,ESE,113,1.8,7.2,17,0.00,,,0.00,WUHU216HW,2013-02-16 20:50:00,
2013-02-16 13:55:00,61.0,15.0,30.11,ENE,68,2.5,7.2,17,0.00,,,0.00,WUHU216HW,2013-02-16 20:55:00,
2013-02-16 14:00:00,60.8,13.3,30.11,NE,45,2.0,4.7,16,0.00,,,0.00,WUHU216HW,2013-02-16 21:00:00,
2013-02-16 14:05:00,60.8,13.3,30.11,ENE,68,2.7,4.7,16,0.00,,,0.00,WUHU216HW,2013-02-16 21:05:00,
2013-02-16 14:10:00,61.6,15.5,30.11,ESE,113,2.0,4.0,17,0.00,,,0.00,WUHU216HW,2013-02-16 21:10:00,
2013-02-16 14:15:00,61.7,14.0,30.10,East,90,1.6,3.1,16,0.00,,,0.00,WUHU216HW,2013-02-16 21:15:00,
2013-02-16 14:20:00,61.2,12.1,30.10,ESE,113,1.8,6.0,15,0.00,,,0.00,WUHU216HW,2013-02-16 21:20:00,
2013-02-16 14:25:00,61.6,14.0,30.10,ESE,113,2.0,6.0,16,0.00,,,0.00,WUHU216HW,2013-02-16 21:25:00,
2013-02-16 14:30:00,61.7,14.0,30.09,NE,45,2.5,3.4,16,0.00,,,0.00,WUHU216HW,2013-02-16 21:30:00,
2013-02-16 14:36:00,62.3,14.5,30.09,SE,135,6.3,6.3,16,0.00,,,0.00,WUHU216HW,2013-02-16 21:36:00,
2013-02-16 14:41:00,62.5,14.7,30.09,ESE,113,1.1,6.3,16,0.00,,,0.00,WUHU216HW,2013-02-16 21:41:00,
2013-02-16 14:46:00,62.6,13.2,30.09,East,90,1.1,6.3,15,0.00,,,0.00,WUHU216HW,2013-02-16 21:46:00,
2013-02-16 14:51:00,62.6,13.2,30.09,NE,45,4.5,4.7,15,0.00,,,0.00,WUHU216HW,2013-02-16 21:51:00,
2013-02-16 14:56:00,62.5,13.1,30.08,East,90,2.2,4.9,15,0.00,,,0.00,WUHU216HW,2013-02-16 21:56:00,
2013-02-16 15:01:00,62.6,13.2,30.08,NE,45,4.0,4.3,15,0.00,,,0.00,WUHU216HW,2013-02-16 22:01:00,
2013-02-16 15:07:00,62.3,13.0,30.08,East,90,1.8,4.3,15,0.00,,,0.00,WUHU216HW,2013-02-16 22:07:00,
2013-02-16 15:12:00,62.6,13.2,30.08,ESE,113,2.5,4.0,15,0.00,,,0.00,WUHU216HW,2013-02-16 22:12:00,
2013-02-16 15:17:00,63.0,13.5,30.08,ESE,113,2.9,3.4,15,0.00,,,0.00,WUHU216HW,2013-02-16 22:17:00,
2013-02-16 15:22:00,63.0,13.5,30.07,ESE,113,1.3,3.4,15,0.00,,,0.00,WUHU216HW,2013-02-16 22:22:00,
2013-02-16 15:28:00,63.0,13.5,30.07,NE,45,0.7,5.4,15,0.00,,,0.00,WUHU216HW,2013-02-16 22:28:00,
2013-02-16 15:33:00,62.6,13.2,30.07,NE,45,1.8,5.6,15,0.00,,,0.00,WUHU216HW,2013-02-16 22:33:00,
2013-02-16 15:38:00,62.6,13.2,30.07,ESE,113,1.1,5.6,15,0.00,,,0.00,WUHU216HW,2013-02-16 22:38:00,
2013-02-16 15:43:00,63.0,13.5,30.07,NE,45,1.8,4.3,15,0.00,,,0.00,WUHU216HW,2013-02-16 22:43:00,
2013-02-16 15:48:00,63.0,13.5,30.07,ENE,68,2.0,4.0,15,0.00,,,0.00,WUHU216HW,2013-02-16 22:48:00,
2013-02-16 15:53:00,63.0,10.4,30.07,NNE,23,4.0,6.9,13,0.00,,,0.00,WUHU216HW,2013-02-16 22:53:00,
2013-02-16 15:58:00,63.0,10.4,30.06,NE,45,1.6,6.9,13,0.00,,,0.00,WUHU216HW,2013-02-16 22:58:00,
2013-02-16 16:03:00,63.0,13.5,30.06,East,90,1.8,5.4,15,0.00,,,0.00,WUHU216HW,2013-02-16 23:03:00,
2013-02-16 16:08:00,63.4,13.8,30.07,ENE,68,2.0,4.0,15,0.00,,,0.00,WUHU216HW,2013-02-16 23:08:00,
2013-02-16 16:13:00,63.5,13.9,30.06,NE,45,3.4,4.0,15,0.00,,,0.00,WUHU216HW,2013-02-16 23:13:00,
2013-02-16 16:18:00,63.9,11.0,30.06,ENE,68,1.3,4.9,13,0.00,,,0.00,WUHU216HW,2013-02-16 23:18:00,
2013-02-16 16:23:00,64.3,11.3,30.06,East,90,1.8,4.9,13,0.00,,,0.00,WUHU216HW,2013-02-16 23:23:00,
2013-02-16 16:28:00,64.1,11.2,30.06,ESE,113,1.6,4.7,13,0.00,,,0.00,WUHU216HW,2013-02-16 23:28:00,
2013-02-16 16:33:00,63.7,10.9,30.06,SSE,158,2.0,4.7,13,0.00,,,0.00,WUHU216HW,2013-02-16 23:33:00,
2013-02-16 16:38:00,63.4,10.6,30.06,ESE,113,1.6,4.0,13,0.00,,,0.00,WUHU216HW,2013-02-16 23:38:00,
2013-02-16 16:43:00,63.0,10.4,30.05,ESE,113,1.3,4.3,13,0.00,,,0.00,WUHU216HW,2013-02-16 23:43:00,
2013-02-16 16:48:00,62.8,10.3,30.05,East,90,0.2,4.3,13,0.00,,,0.00,WUHU216HW,2013-02-16 23:48:00,
2013-02-16 16:53:00,63.0,13.5,30.05,ENE,68,0.2,3.4,15,0.00,,,0.00,WUHU216HW,2013-02-16 23:53:00,
2013-02-16 16:58:00,62.8,11.8,30.05,ESE,113,1.1,5.1,14,0.00,,,0.00,WUHU216HW,2013-02-16 23:58:00,
2013-02-16 17:03:00,62.6,10.1,30.05,NE,45,1.1,5.1,13,0.00,,,0.00,WUHU216HW,2013-02-17 00:03:00,
2013-02-16 17:08:00,62.5,10.0,30.05,ENE,68,2.7,3.4,13,0.00,,,0.00,WUHU216HW,2013-02-17 00:08:00,
2013-02-16 17:13:00,62.3,9.8,30.05,NE,45,2.9,5.1,13,0.00,,,0.00,WUHU216HW,2013-02-17 00:13:00,
2013-02-16 17:18:00,62.3,9.8,30.05,ENE,68,3.4,5.1,13,0.00,,,0.00,WUHU216HW,2013-02-17 00:18:00,
2013-02-16 17:23:00,62.3,9.8,30.05,East,90,0.9,5.4,13,0.00,,,0.00,WUHU216HW,2013-02-17 00:23:00,
2013-02-16 17:28:00,62.8,11.8,30.05,ENE,68,1.8,5.4,14,0.00,,,0.00,WUHU216HW,2013-02-17 00:28:00,
2013-02-16 17:33:00,62.6,10.1,30.05,NE,45,1.1,2.5,13,0.00,,,0.00,WUHU216HW,2013-02-17 00:33:00,
2013-02-16 17:38:00,61.9,9.6,30.05,East,90,0.7,2.0,13,0.00,,,0.00,WUHU216HW,2013-02-17 00:38:00,
2013-02-16 17:43:00,61.2,8.9,30.05,ENE,68,1.8,4.5,13,0.00,,,0.00,WUHU216HW,2013-02-17 00:43:00,
2013-02-16 17:48:00,60.3,11.4,30.04,East,90,0.2,4.5,15,0.00,,,0.00,WUHU216HW,2013-02-17 00:48:00,
2013-02-16 17:53:00,59.6,10.7,30.04,NE,45,0.9,2.0,15,0.00,,,0.00,WUHU216HW,2013-02-17 00:53:00,
2013-02-16 17:58:00,58.9,10.1,30.05,NE,45,0.4,1.8,15,0.00,,,0.00,WUHU216HW,2013-02-17 00:58:00,
2013-02-16 18:03:00,58.3,9.7,30.05,East,90,0.4,2.2,15,0.00,,,0.00,WUHU216HW,2013-02-17 01:03:00,
2013-02-16 18:08:00,57.8,10.8,30.05,East,90,0.4,2.2,16,0.00,,,0.00,WUHU216HW,2013-02-17 01:08:00,
2013-02-16 18:13:00,57.2,10.4,30.05,ENE,68,1.1,2.2,16,0.00,,,0.00,WUHU216HW,2013-02-17 01:13:00,
2013-02-16 18:18:00,56.7,10.0,30.05,East,90,0.2,2.2,16,0.00,,,0.00,WUHU216HW,2013-02-17 01:18:00,
2013-02-16 18:23:00,56.2,9.5,30.05,ESE,113,0.4,1.1,16,0.00,,,0.00,WUHU216HW,2013-02-17 01:23:00,
2013-02-16 18:28:00,55.8,9.3,30.05,ENE,68,0.7,5.6,16,0.00,,,0.00,WUHU216HW,2013-02-17 01:28:00,
2013-02-16 18:33:00,55.6,9.2,30.05,NE,45,0.9,5.6,16,0.00,,,0.00,WUHU216HW,2013-02-17 01:33:00,
2013-02-16 18:38:00,55.3,10.4,30.05,East,90,0.4,2.0,17,0.00,,,0.00,WUHU216HW,2013-02-17 01:38:00,
2013-02-16 18:43:00,54.9,10.1,30.05,NE,45,1.3,1.3,17,0.00,,,0.00,WUHU216HW,2013-02-17 01:43:00,
2013-02-16 18:48:00,54.7,9.9,30.05,ESE,113,1.1,1.3,17,0.00,,,0.00,WUHU216HW,2013-02-17 01:48:00,
2013-02-16 18:53:00,54.4,8.1,30.06,ESE,113,0.4,2.9,16,0.00,,,0.00,WUHU216HW,2013-02-17 01:53:00,
2013-02-16 18:58:00,54.4,8.1,30.05,ESE,113,0.2,2.9,16,0.00,,,0.00,WUHU216HW,2013-02-17 01:58:00,
2013-02-16 19:03:00,54.2,7.9,30.06,ESE,113,0.4,1.1,16,0.00,,,0.00,WUHU216HW,2013-02-17 02:03:00,
2013-02-16 19:08:00,53.6,7.5,30.06,East,90,0.7,1.3,16,0.00,,,0.00,WUHU216HW,2013-02-17 02:08:00,
2013-02-16 19:13:00,53.5,8.8,30.06,East,90,0.4,1.3,17,0.00,,,0.00,WUHU216HW,2013-02-17 02:13:00,
2013-02-16 19:18:00,53.1,8.6,30.06,East,90,0.0,0.7,17,0.00,,,0.00,WUHU216HW,2013-02-17 02:18:00,
2013-02-16 19:23:00,52.7,8.3,30.06,NE,45,0.0,1.3,17,0.00,,,0.00,WUHU216HW,2013-02-17 02:23:00,
2013-02-16 19:28:00,52.4,7.9,30.06,ENE,68,0.0,1.3,17,0.00,,,0.00,WUHU216HW,2013-02-17 02:28:00,
2013-02-16 19:33:00,52.0,7.7,30.06,ENE,68,0.0,1.1,17,0.00,,,0.00,WUHU216HW,2013-02-17 02:33:00,
2013-02-16 19:38:00,51.7,7.4,30.06,NE,45,0.0,0.0,17,0.00,,,0.00,WUHU216HW,2013-02-17 02:38:00,
2013-02-16 19:43:00,51.5,8.7,30.06,NE,45,0.0,0.2,18,0.00,,,0.00,WUHU216HW,2013-02-17 02:43:00,
2013-02-16 19:48:00,51.1,8.5,30.06,NE,45,0.0,0.2,18,0.00,,,0.00,WUHU216HW,2013-02-17 02:48:00,
2013-02-16 19:53:00,50.8,8.2,30.06,NE,45,0.0,0.2,18,0.00,,,0.00,WUHU216HW,2013-02-17 02:53:00,
2013-02-16 19:58:00,50.4,7.9,30.06,NE,45,0.0,0.2,18,0.00,,,0.00,WUHU216HW,2013-02-17 02:58:00,
2013-02-16 20:03:00,49.9,7.5,30.06,ESE,113,0.4,0.7,18,0.00,,,0.00,WUHU216HW,2013-02-17 03:03:00,
2013-02-16 20:08:00,49.1,9.8,30.06,East,90,0.0,0.7,20,0.00,,,0.00,WUHU216HW,2013-02-17 03:08:00,
2013-02-16 20:13:00,48.4,9.2,30.05,East,90,0.0,0.2,20,0.00,,,0.00,WUHU216HW,2013-02-17 03:13:00,
2013-02-16 20:18:00,47.9,9.6,30.06,East,90,0.0,0.0,21,0.00,,,0.00,WUHU216HW,2013-02-17 03:18:00,
2013-02-16 20:23:00,47.3,9.2,30.06,East,90,0.0,0.0,21,0.00,,,0.00,WUHU216HW,2013-02-17 03:23:00,
2013-02-16 20:28:00,47.2,10.0,30.06,ESE,113,0.0,0.7,22,0.00,,,0.00,WUHU216HW,2013-02-17 03:28:00,
2013-02-16 20:33:00,46.6,9.5,30.05,ESE,113,0.0,0.7,22,0.00,,,0.00,WUHU216HW,2013-02-17 03:33:00,
2013-02-16 20:38:00,45.9,9.9,30.05,NE,45,0.0,0.0,23,0.00,,,0.00,WUHU216HW,2013-02-17 03:38:00,
2013-02-16 20:43:00,45.7,9.7,30.06,ENE,68,0.0,0.0,23,0.00,,,0.00,WUHU216HW,2013-02-17 03:43:00,
2013-02-16 20:48:00,45.5,9.5,30.06,ENE,68,0.0,0.0,23,0.00,,,0.00,WUHU216HW,2013-02-17 03:48:00,
2013-02-16 20:53:00,45.4,10.4,30.06,North,0,0.7,0.7,24,0.00,,,0.00,WUHU216HW,2013-02-17 03:53:00,
2013-02-16 20:58:00,45.0,10.0,30.06,ESE,113,0.0,1.1,24,0.00,,,0.00,WUHU216HW,2013-02-17 03:58:00,
2013-02-16 21:03:00,45.2,10.2,30.06,NNW,338,0.0,1.1,24,0.00,,,0.00,WUHU216HW,2013-02-17 04:03:00,
2013-02-16 21:08:00,45.5,10.4,30.06,NE,45,0.4,0.9,24,0.00,,,0.00,WUHU216HW,2013-02-17 04:08:00,
2013-02-16 21:13:00,45.5,10.4,30.06,ENE,68,0.0,0.9,24,0.00,,,0.00,WUHU216HW,2013-02-17 04:13:00,
2013-02-16 21:18:00,45.5,10.4,30.06,NNE,23,0.0,0.4,24,0.00,,,0.00,WUHU216HW,2013-02-17 04:18:00,
2013-02-16 21:23:00,45.4,10.4,30.06,ESE,113,0.0,0.2,24,0.00,,,0.00,WUHU216HW,2013-02-17 04:23:00,
2013-02-16 21:28:00,45.2,10.2,30.06,North,0,0.0,0.4,24,0.00,,,0.00,WUHU216HW,2013-02-17 04:28:00,
2013-02-16 21:34:00,45.0,10.0,30.06,North,0,0.0,0.4,24,0.00,,,0.00,WUHU216HW,2013-02-17 04:34:00,
2013-02-16 21:39:00,44.6,9.7,30.06,East,90,0.0,0.7,24,0.00,,,0.00,WUHU216HW,2013-02-17 04:39:00,
2013-02-16 21:44:00,44.1,9.3,30.06,NNE,23,0.0,0.7,24,0.00,,,0.00,WUHU216HW,2013-02-17 04:44:00,
2013-02-16 21:49:00,43.7,9.8,30.06,NNE,23,0.0,0.4,25,0.00,,,0.00,WUHU216HW,2013-02-17 04:49:00,
2013-02-16 21:55:00,43.4,10.4,30.06,ESE,113,0.0,0.7,26,0.00,,,0.00,WUHU216HW,2013-02-17 04:55:00,
2013-02-16 22:00:00,43.2,11.2,30.05,ESE,113,0.0,0.7,27,0.00,,,0.00,WUHU216HW,2013-02-17 05:00:00,
2013-02-16 22:01:00,43.0,11.0,30.06,ESE,113,0.0,0.7,27,0.00,,,0.00,WUHU216HW,2013-02-17 05:01:00,
2013-02-16 22:06:00,42.8,10.8,30.06,SSW,203,0.7,0.7,27,0.00,,,0.00,WUHU216HW,2013-02-17 05:06:00,
2013-02-16 22:11:00,42.7,10.6,30.05,SE,135,0.0,0.7,27,0.00,,,0.00,WUHU216HW,2013-02-17 05:11:00,
2013-02-16 22:16:00,42.5,10.5,30.05,NW,315,0.0,0.9,27,0.00,,,0.00,WUHU216HW,2013-02-17 05:16:00,
2013-02-16 22:21:00,42.3,11.3,30.05,ESE,113,0.0,0.9,28,0.00,,,0.00,WUHU216HW,2013-02-17 05:21:00,
2013-02-16 22:26:00,41.9,11.0,30.05,WSW,248,0.4,0.7,28,0.00,,,0.00,WUHU216HW,2013-02-17 05:26:00,
2013-02-16 22:31:00,41.8,11.7,30.05,WSW,248,0.0,0.9,29,0.00,,,0.00,WUHU216HW,2013-02-17 05:31:00,
2013-02-16 22:36:00,41.4,10.5,30.05,WSW,248,0.0,0.9,28,0.00,,,0.00,WUHU216HW,2013-02-17 05:36:00,
2013-02-16 22:41:00,41.2,11.4,30.05,SW,225,0.0,0.2,29,0.00,,,0.00,WUHU216HW,2013-02-17 05:41:00,
2013-02-16 22:46:00,41.0,11.2,30.04,SE,135,0.0,0.4,29,0.00,,,0.00,WUHU216HW,2013-02-17 05:46:00,
2013-02-16 22:51:00,40.9,11.0,30.04,SW,225,0.0,1.3,29,0.00,,,0.00,WUHU216HW,2013-02-17 05:51:00,
2013-02-16 22:56:00,40.7,10.8,30.04,SSE,158,0.2,1.3,29,0.00,,,0.00,WUHU216HW,2013-02-17 05:56:00,
2013-02-16 23:01:00,40.5,10.7,30.04,East,90,0.2,1.3,29,0.00,,,0.00,WUHU216HW,2013-02-17 06:01:00,
2013-02-16 23:06:00,40.5,10.7,30.04,East,90,0.0,1.3,29,0.00,,,0.00,WUHU216HW,2013-02-17 06:06:00,
2013-02-16 23:11:00,40.3,10.5,30.04,East,90,0.0,0.4,29,0.00,,,0.00,WUHU216HW,2013-02-17 06:11:00,
2013-02-16 23:16:00,40.3,10.5,30.04,East,90,0.0,0.0,29,0.00,,,0.00,WUHU216HW,2013-02-17 06:16:00,
2013-02-16 23:21:00,40.0,11.1,30.04,East,90,0.0,0.0,30,0.00,,,0.00,WUHU216HW,2013-02-17 06:21:00,
2013-02-16 23:26:00,39.8,10.9,30.04,East,90,0.0,0.0,30,0.00,,,0.00,WUHU216HW,2013-02-17 06:26:00,
2013-02-16 23:31:00,39.6,10.8,30.04,East,90,0.2,0.2,30,0.00,,,0.00,WUHU216HW,2013-02-17 06:31:00,
2013-02-16 23:36:00,39.2,10.4,30.03,East,90,0.0,0.2,30,0.00,,,0.00,WUHU216HW,2013-02-17 06:36:00,
2013-02-16 23:41:00,39.1,10.9,30.03,East,90,0.0,0.2,31,0.00,,,0.00,WUHU216HW,2013-02-17 06:41:00,
2013-02-16 23:46:00,38.7,10.6,30.03,NNW,338,0.0,0.0,31,0.00,,,0.00,WUHU216HW,2013-02-17 06:46:00,
2013-02-16 23:51:00,38.5,10.4,30.03,NNW,338,0.0,0.0,31,0.00,,,0.00,WUHU216HW,2013-02-17 06:51:00,
2013-02-16 23:56:00,38.3,10.9,30.03,NNW,338,0.0,0.0,32,0.00,,,0.00,WUHU216HW,2013-02-17 06:56:00,